Time,TemperatureF,DewpointF,PressureIn,WindDirection,WindDirectionDegrees,WindSpeedMPH,WindSpeedGustMPH,Humidity,HourlyPrecipIn,Conditions,Clouds,dailyrainin,SoftwareType,DateUTC
2013-12-31 00:01:00,31.6,22.0,30.15,SSE,158,1.3,2.2,67,0.00,,OVC013,0.00,VWS V14.01,2013-12-31 05:01:00,
2013-12-31 00:06:00,31.6,22.0,30.15,South,180,2.0,2.5,67,0.00,,OVC013,0.00,VWS V14.01,2013-12-31 05:06:00,
2013-12-31 00:11:00,31.6,22.0,30.15,South,180,2.9,4.7,67,0.00,,OVC013,0.00,VWS V14.01,2013-12-31 05:11:00,
2013-12-31 00:16:00,31.6,22.0,30.15,West,270,0.0,2.5,67,0.00,,OVC013,0.00,VWS V14.01,2013-12-31 05:16:00,
2013-12-31 00:21:00,31.5,21.4,30.15,WSW,248,0.0,2.2,66,0.00,,OVC013,0.00,VWS V14.01,2013-12-31 05:21:00,
2013-12-31 00:26:00,31.5,20.7,30.12,SW,225,3.8,4.0,64,0.00,,OVC013,0.00,VWS V14.01,2013-12-31 05:26:00,
2013-12-31 00:31:00,31.5,21.1,30.12,South,180,2.9,4.3,65,0.00,,OVC013,0.00,VWS V14.01,2013-12-31 05:31:00,
2013-12-31 00:36:00,31.3,20.9,30.12,South,180,4.0,4.0,65,0.00,,OVC013,0.00,VWS V14.01,2013-12-31 05:36:00,
2013-12-31 00:41:00,31.5,20.3,30.15,South,180,3.1,5.8,63,0.00,,OVC013,0.00,VWS V14.01,2013-12-31 05:41:00,
2013-12-31 00:46:00,31.3,19.8,30.15,WSW,248,1.3,2.5,62,0.00,,OVC013,0.00,VWS V14.01,2013-12-31 05:46:00,
2013-12-31 00:51:00,31.1,19.6,30.15,SSE,158,2.5,3.1,62,0.00,,OVC013,0.00,VWS V14.01,2013-12-31 05:51:00,
2013-12-31 00:56:00,31.3,19.0,30.15,South,180,3.6,5.8,60,0.00,,OVC013,0.00,VWS V14.01,2013-12-31 05:56:00,
2013-12-31 01:01:00,31.3,18.6,30.15,SSW,202,2.9,4.3,59,0.00,,OVC110,0.00,VWS V14.01,2013-12-31 06:01:00,
2013-12-31 01:06:00,31.1,18.9,30.15,SSE,158,3.6,4.0,60,0.00,,OVC110,0.00,VWS V14.01,2013-12-31 06:06:00,
2013-12-31 01:11:00,30.9,19.5,30.15,South,180,4.0,4.3,62,0.00,,OVC110,0.00,VWS V14.01,2013-12-31 06:11:00,
2013-12-31 01:16:00,30.9,19.1,30.15,South,180,1.3,5.6,61,0.00,,OVC110,0.00,VWS V14.01,2013-12-31 06:16:00,
2013-12-31 01:21:00,30.7,18.9,30.15,South,180,2.7,3.4,61,0.00,,OVC110,0.00,VWS V14.01,2013-12-31 06:21:00,
2013-12-31 01:26:00,30.4,19.3,30.15,South,180,2.5,4.7,63,0.00,,OVC110,0.00,VWS V14.01,2013-12-31 06:26:00,
2013-12-31 01:31:00,30.4,19.3,30.15,East,90,2.7,3.6,63,0.00,,OVC110,0.00,VWS V14.01,2013-12-31 06:31:00,
2013-12-31 01:36:00,30.2,19.5,30.15,South,180,5.4,5.4,64,0.00,,OVC110,0.00,VWS V14.01,2013-12-31 06:36:00,
2013-12-31 01:41:00,30.4,18.6,30.12,SSE,158,2.7,5.6,61,0.00,,OVC110,0.00,VWS V14.01,2013-12-31 06:41:00,
2013-12-31 01:46:00,30.4,18.2,30.12,SSE,158,4.0,6.5,60,0.00,,OVC110,0.00,VWS V14.01,2013-12-31 06:46:00,
2013-12-31 01:51:00,30.4,18.2,30.12,South,180,5.6,5.6,60,0.00,,OVC110,0.00,VWS V14.01,2013-12-31 06:51:00,
2013-12-31 01:56:00,30.2,18.8,30.15,ESE,112,2.7,3.1,62,0.00,,OVC110,0.00,VWS V14.01,2013-12-31 06:56:00,
2013-12-31 02:01:00,30.0,18.2,30.15,South,180,1.6,2.0,61,0.00,,OVC110,0.00,VWS V14.01,2013-12-31 07:01:00,
2013-12-31 02:06:00,30.0,19.0,30.15,ESE,112,7.6,7.6,63,0.00,,OVC110,0.00,VWS V14.01,2013-12-31 07:06:00,
2013-12-31 02:11:00,30.2,18.8,30.15,SE,135,2.7,4.0,62,0.00,,OVC110,0.00,VWS V14.01,2013-12-31 07:11:00,
2013-12-31 02:16:00,30.2,19.1,30.15,South,180,2.7,3.8,63,0.00,,OVC110,0.00,VWS V14.01,2013-12-31 07:16:00,
2013-12-31 02:21:00,30.2,18.8,30.15,SSE,158,2.7,3.6,62,0.00,,OVC110,0.00,VWS V14.01,2013-12-31 07:21:00,
2013-12-31 02:26:00,30.0,18.6,30.15,SSW,202,2.5,5.4,62,0.00,,OVC110,0.00,VWS V14.01,2013-12-31 07:26:00,
2013-12-31 02:31:00,30.0,17.8,30.15,South,180,4.7,4.7,60,0.00,,OVC110,0.00,VWS V14.01,2013-12-31 07:31:00,
2013-12-31 02:36:00,29.8,17.7,30.15,South,180,3.1,3.6,60,0.00,,OVC110,0.00,VWS V14.01,2013-12-31 07:36:00,
2013-12-31 02:41:00,29.8,17.7,30.15,SSE,158,3.1,4.3,60,0.00,,OVC110,0.00,VWS V14.01,2013-12-31 07:41:00,
2013-12-31 02:46:00,29.7,17.9,30.15,SW,225,3.1,5.4,61,0.00,,OVC110,0.00,VWS V14.01,2013-12-31 07:46:00,
2013-12-31 02:51:00,29.8,17.7,30.15,SW,225,1.1,3.4,60,0.00,,OVC110,0.00,VWS V14.01,2013-12-31 07:51:00,
2013-12-31 02:56:00,29.7,17.5,30.15,SSW,202,2.5,2.7,60,0.00,,OVC110,0.00,VWS V14.01,2013-12-31 07:56:00,
2013-12-31 03:01:00,29.7,17.5,30.15,SW,225,3.1,3.4,60,0.00,,OVC110,0.00,VWS V14.01,2013-12-31 08:01:00,
2013-12-31 03:06:00,29.5,17.3,30.15,SE,135,2.9,4.3,60,0.00,,OVC110,0.00,VWS V14.01,2013-12-31 08:06:00,
2013-12-31 03:11:00,29.3,17.1,30.15,SE,135,2.7,2.7,60,0.00,,OVC110,0.00,VWS V14.01,2013-12-31 08:11:00,
2013-12-31 03:16:00,28.9,17.2,30.15,SE,135,1.3,2.7,61,0.00,,OVC110,0.00,VWS V14.01,2013-12-31 08:16:00,
2013-12-31 03:21:00,28.6,16.9,30.15,SSE,158,4.0,4.0,61,0.00,,OVC110,0.00,VWS V14.01,2013-12-31 08:21:00,
2013-12-31 03:26:00,28.2,16.9,30.15,SSE,158,2.5,2.7,62,0.00,,OVC110,0.00,VWS V14.01,2013-12-31 08:26:00,
2013-12-31 03:31:00,27.7,16.7,30.15,South,180,1.3,2.7,63,0.00,,OVC110,0.00,VWS V14.01,2013-12-31 08:31:00,
2013-12-31 03:36:00,27.5,16.9,30.15,ESE,112,3.1,3.4,64,0.00,,OVC110,0.00,VWS V14.01,2013-12-31 08:36:00,
2013-12-31 03:41:00,27.5,17.6,30.15,ESE,112,3.1,3.1,66,0.00,,OVC110,0.00,VWS V14.01,2013-12-31 08:41:00,
2013-12-31 03:46:00,27.3,17.5,30.15,SE,135,1.6,2.9,66,0.00,,OVC110,0.00,VWS V14.01,2013-12-31 08:46:00,
2013-12-31 03:51:00,27.3,17.5,30.15,SSW,202,1.6,3.4,66,0.00,,OVC110,0.00,VWS V14.01,2013-12-31 08:51:00,
2013-12-31 03:56:00,27.3,17.5,30.15,SSE,158,2.7,4.9,66,0.00,,OVC110,0.00,VWS V14.01,2013-12-31 08:56:00,
2013-12-31 04:01:00,27.1,17.3,30.15,SE,135,2.9,3.6,66,0.00,,OVC120,0.00,VWS V14.01,2013-12-31 09:01:00,
2013-12-31 04:06:00,27.1,17.6,30.15,East,90,2.5,4.0,67,0.00,,OVC120,0.00,VWS V14.01,2013-12-31 09:06:00,
2013-12-31 04:11:00,27.0,17.5,30.15,SE,135,0.0,2.0,67,0.00,,OVC120,0.00,VWS V14.01,2013-12-31 09:11:00,
2013-12-31 04:16:00,26.2,16.8,30.15,SSE,158,0.0,0.0,67,0.00,,OVC120,0.00,VWS V14.01,2013-12-31 09:16:00,
2013-12-31 04:21:00,25.7,16.6,30.15,ESE,112,0.9,0.9,68,0.00,,OVC120,0.00,VWS V14.01,2013-12-31 09:21:00,
2013-12-31 04:26:00,26.1,17.3,30.12,SE,135,1.3,2.7,69,0.00,,OVC120,0.00,VWS V14.01,2013-12-31 09:26:00,
2013-12-31 04:31:00,25.9,17.8,30.12,SE,135,2.5,2.7,71,0.00,,OVC120,0.00,VWS V14.01,2013-12-31 09:31:00,
2013-12-31 04:36:00,26.1,18.9,30.12,East,90,1.1,2.5,74,0.00,,OVC120,0.00,VWS V14.01,2013-12-31 09:36:00,
2013-12-31 04:41:00,25.3,18.2,30.15,East,90,2.5,2.5,74,0.00,,OVC120,0.00,VWS V14.01,2013-12-31 09:41:00,
2013-12-31 04:46:00,25.3,18.2,30.15,SE,135,0.0,0.0,74,0.00,,OVC120,0.00,VWS V14.01,2013-12-31 09:46:00,
2013-12-31 04:51:00,24.8,17.7,30.15,East,90,0.0,0.9,74,0.00,,OVC120,0.00,VWS V14.01,2013-12-31 09:51:00,
2013-12-31 04:56:00,25.2,18.4,30.12,NNE,22,0.9,2.2,75,0.00,,OVC120,0.00,VWS V14.01,2013-12-31 09:56:00,
2013-12-31 05:01:00,25.0,18.5,30.12,NNW,338,0.0,0.0,76,0.00,,SCT095,0.00,VWS V14.01,2013-12-31 10:01:00,
2013-12-31 05:06:00,25.0,18.8,30.12,ENE,68,2.9,2.9,77,0.00,,SCT095,0.00,VWS V14.01,2013-12-31 10:06:00,
2013-12-31 05:11:00,25.3,19.5,30.15,SSE,158,2.9,3.6,78,0.00,,SCT095,0.00,VWS V14.01,2013-12-31 10:11:00,
2013-12-31 05:18:00,25.2,19.3,30.15,SSW,202,0.0,0.0,78,0.00,,,0.00,VWS V14.01,2013-12-31 10:18:00,
2013-12-31 05:23:00,24.8,18.9,30.15,NNE,22,2.2,2.2,78,0.00,,,0.00,VWS V14.01,2013-12-31 10:23:00,
2013-12-31 05:28:00,24.8,19.2,30.18,NE,45,0.0,1.1,79,0.00,,,0.00,VWS V14.01,2013-12-31 10:28:00,
2013-12-31 05:33:00,24.4,18.9,30.18,NE,45,0.0,1.3,79,0.00,,,0.00,VWS V14.01,2013-12-31 10:33:00,
2013-12-31 05:38:00,24.3,18.4,30.18,West,270,0.0,1.6,78,0.00,,,0.00,VWS V14.01,2013-12-31 10:38:00,
2013-12-31 05:43:00,25.2,19.6,30.18,SSW,202,0.0,5.8,79,0.00,,,0.00,VWS V14.01,2013-12-31 10:43:00,
2013-12-31 05:48:00,25.9,20.3,30.18,ESE,112,1.6,4.3,79,0.00,,,0.00,VWS V14.01,2013-12-31 10:48:00,
2013-12-31 05:53:00,25.7,19.8,30.18,NE,45,1.1,4.0,78,0.00,,,0.00,VWS V14.01,2013-12-31 10:53:00,
2013-12-31 05:58:00,25.3,19.5,30.18,East,90,0.0,2.5,78,0.00,,,0.00,VWS V14.01,2013-12-31 10:58:00,
2013-12-31 06:03:00,24.8,18.9,30.18,SSE,158,2.7,2.7,78,0.00,,CLR,0.00,VWS V14.01,2013-12-31 11:03:00,
2013-12-31 06:08:00,25.5,19.6,30.18,ESE,112,2.9,3.6,78,0.00,,CLR,0.00,VWS V14.01,2013-12-31 11:08:00,
2013-12-31 06:13:00,25.5,19.3,30.21,North,0,1.3,2.9,77,0.00,,CLR,0.00,VWS V14.01,2013-12-31 11:13:00,
2013-12-31 06:18:00,24.8,18.6,30.21,NNW,338,1.1,2.0,77,0.00,,CLR,0.00,VWS V14.01,2013-12-31 11:18:00,
2013-12-31 06:23:00,24.3,17.8,30.21,North,0,1.1,1.3,76,0.00,,CLR,0.00,VWS V14.01,2013-12-31 11:23:00,
2013-12-31 06:28:00,24.3,18.1,30.18,ENE,68,1.3,3.4,77,0.00,,CLR,0.00,VWS V14.01,2013-12-31 11:28:00,
2013-12-31 06:33:00,24.4,18.6,30.18,SSE,158,0.0,3.4,78,0.00,,CLR,0.00,VWS V14.01,2013-12-31 11:33:00,
2013-12-31 06:38:00,24.3,18.4,30.18,ENE,68,0.0,2.5,78,0.00,,CLR,0.00,VWS V14.01,2013-12-31 11:38:00,
2013-12-31 06:43:00,23.7,17.6,30.18,SSE,158,0.0,3.4,77,0.00,,CLR,0.00,VWS V14.01,2013-12-31 11:43:00,
2013-12-31 06:48:00,23.2,17.0,30.18,North,0,0.0,1.3,77,0.00,,CLR,0.00,VWS V14.01,2013-12-31 11:48:00,
2013-12-31 06:53:00,23.2,17.0,30.18,East,90,2.5,3.8,77,0.00,,CLR,0.00,VWS V14.01,2013-12-31 11:53:00,
2013-12-31 06:58:00,23.2,17.4,30.18,ENE,68,1.3,2.9,78,0.00,,CLR,0.00,VWS V14.01,2013-12-31 11:58:00,
2013-12-31 07:03:00,23.2,17.6,30.18,East,90,1.6,2.5,79,0.00,,CLR,0.00,VWS V14.01,2013-12-31 12:03:00,
2013-12-31 07:08:00,23.2,17.9,30.18,NW,315,0.0,2.0,80,0.00,,CLR,0.00,VWS V14.01,2013-12-31 12:08:00,
2013-12-31 07:13:00,23.4,18.1,30.18,ENE,68,0.0,2.9,80,0.00,,CLR,0.00,VWS V14.01,2013-12-31 12:13:00,
2013-12-31 07:18:00,23.7,18.8,30.18,SSE,158,2.7,4.0,81,0.00,,CLR,0.00,VWS V14.01,2013-12-31 12:18:00,
2013-12-31 07:23:00,23.9,18.9,30.18,ESE,112,2.0,4.3,81,0.00,,CLR,0.00,VWS V14.01,2013-12-31 12:23:00,
2013-12-31 07:28:00,24.4,19.5,30.18,SSE,158,1.6,4.3,81,0.00,,CLR,0.00,VWS V14.01,2013-12-31 12:28:00,
2013-12-31 07:33:00,24.6,19.6,30.18,SE,135,2.5,4.3,81,0.00,,CLR,0.00,VWS V14.01,2013-12-31 12:33:00,
2013-12-31 07:38:00,25.0,19.7,30.18,SE,135,3.8,5.8,80,0.00,,CLR,0.00,VWS V14.01,2013-12-31 12:38:00,
2013-12-31 07:43:00,25.0,19.4,30.21,SE,135,2.0,4.9,79,0.00,,CLR,0.00,VWS V14.01,2013-12-31 12:43:00,
2013-12-31 07:48:00,25.3,19.8,30.21,SSE,158,2.5,5.4,79,0.00,,CLR,0.00,VWS V14.01,2013-12-31 12:48:00,
2013-12-31 07:53:00,25.3,19.5,30.21,SSE,158,4.9,4.9,78,0.00,,CLR,0.00,VWS V14.01,2013-12-31 12:53:00,
2013-12-31 07:58:00,25.5,19.6,30.21,SSE,158,2.5,4.0,78,0.00,,CLR,0.00,VWS V14.01,2013-12-31 12:58:00,
2013-12-31 08:03:00,25.7,19.5,30.21,WSW,248,2.9,4.3,77,0.00,,CLR,0.00,VWS V14.01,2013-12-31 13:03:00,
2013-12-31 08:08:00,26.1,20.1,30.21,South,180,5.4,5.4,78,0.00,,CLR,0.00,VWS V14.01,2013-12-31 13:08:00,
2013-12-31 08:13:00,26.1,19.9,30.21,South,180,3.1,3.8,77,0.00,,CLR,0.00,VWS V14.01,2013-12-31 13:13:00,
2013-12-31 08:18:00,26.4,20.2,30.21,SE,135,0.9,5.8,77,0.00,,CLR,0.00,VWS V14.01,2013-12-31 13:18:00,
2013-12-31 08:23:00,26.4,19.9,30.21,ESE,112,3.1,5.6,76,0.00,,CLR,0.00,VWS V14.01,2013-12-31 13:23:00,
2013-12-31 08:28:00,26.6,19.8,30.24,SE,135,4.7,6.0,75,0.00,,CLR,0.00,VWS V14.01,2013-12-31 13:28:00,
2013-12-31 08:33:00,26.8,19.6,30.24,SSW,202,4.9,4.9,74,0.00,,CLR,0.00,VWS V14.01,2013-12-31 13:33:00,
2013-12-31 08:38:00,27.0,19.5,30.24,South,180,2.7,9.0,73,0.00,,CLR,0.00,VWS V14.01,2013-12-31 13:38:00,
2013-12-31 08:43:00,27.1,19.3,30.21,South,180,3.8,4.7,72,0.00,,CLR,0.00,VWS V14.01,2013-12-31 13:43:00,
2013-12-31 08:48:00,27.1,19.3,30.21,South,180,0.0,3.4,72,0.00,,CLR,0.00,VWS V14.01,2013-12-31 13:48:00,
2013-12-31 08:53:00,27.0,18.8,30.21,SSW,202,2.9,4.7,71,0.00,,CLR,0.00,VWS V14.01,2013-12-31 13:53:00,
2013-12-31 08:58:00,27.5,18.0,30.21,South,180,2.9,8.1,67,0.00,,CLR,0.00,VWS V14.01,2013-12-31 13:58:00,
2013-12-31 09:03:00,27.7,18.2,30.21,SE,135,2.2,8.5,67,0.00,,CLR,0.00,VWS V14.01,2013-12-31 14:03:00,
2013-12-31 09:08:00,27.9,16.5,30.21,South,180,2.2,9.8,62,0.00,,CLR,0.00,VWS V14.01,2013-12-31 14:08:00,
2013-12-31 09:13:00,28.2,17.3,30.24,WNW,292,3.8,4.0,63,0.00,,CLR,0.00,VWS V14.01,2013-12-31 14:13:00,
2013-12-31 09:18:00,28.8,16.6,30.24,SSE,158,3.1,6.0,60,0.00,,CLR,0.00,VWS V14.01,2013-12-31 14:18:00,
2013-12-31 09:23:00,29.5,16.5,30.24,South,180,2.5,6.3,58,0.00,,CLR,0.00,VWS V14.01,2013-12-31 14:23:00,
2013-12-31 09:28:00,30.2,15.6,30.24,South,180,4.3,8.1,54,0.00,,CLR,0.00,VWS V14.01,2013-12-31 14:28:00,
2013-12-31 09:33:00,30.9,15.8,30.24,SW,225,4.0,5.8,53,0.00,,CLR,0.00,VWS V14.01,2013-12-31 14:33:00,
2013-12-31 09:38:00,31.8,15.8,30.24,South,180,5.4,7.8,51,0.00,,CLR,0.00,VWS V14.01,2013-12-31 14:38:00,
2013-12-31 09:43:00,33.3,17.5,30.27,SW,225,3.4,7.2,52,0.00,,CLR,0.00,VWS V14.01,2013-12-31 14:43:00,
2013-12-31 09:48:00,33.6,15.6,30.27,NW,315,6.3,13.0,47,0.00,,CLR,0.00,VWS V14.01,2013-12-31 14:48:00,
2013-12-31 09:53:00,33.6,15.1,30.27,East,90,1.3,7.2,46,0.00,,CLR,0.00,VWS V14.01,2013-12-31 14:53:00,
2013-12-31 09:58:00,33.3,13.2,30.27,SW,225,3.1,10.3,43,0.00,,CLR,0.00,VWS V14.01,2013-12-31 14:58:00,
2013-12-31 10:03:00,34.5,14.9,30.27,SW,225,1.1,5.8,44,0.00,,BKN047,0.00,VWS V14.01,2013-12-31 15:03:00,
2013-12-31 10:08:00,35.1,14.3,30.27,NNW,338,3.1,6.3,42,0.00,,BKN047,0.00,VWS V14.01,2013-12-31 15:08:00,
2013-12-31 10:13:00,35.1,13.8,30.30,SW,225,3.8,12.1,41,0.00,,BKN047,0.00,VWS V14.01,2013-12-31 15:13:00,
2013-12-31 10:18:00,35.6,13.7,30.30,South,180,4.3,6.5,40,0.00,,BKN047,0.00,VWS V14.01,2013-12-31 15:18:00,
2013-12-31 10:23:00,34.9,13.0,30.30,SSE,158,3.8,12.5,40,0.00,,BKN047,0.00,VWS V14.01,2013-12-31 15:23:00,
2013-12-31 10:28:00,36.0,14.0,30.27,South,180,9.8,9.8,40,0.00,,BKN047,0.00,VWS V14.01,2013-12-31 15:28:00,
2013-12-31 10:33:00,36.9,14.2,30.27,South,180,3.8,7.4,39,0.00,,BKN047,0.00,VWS V14.01,2013-12-31 15:33:00,
2013-12-31 10:38:00,36.7,14.1,30.27,South,180,3.8,12.8,39,0.00,,BKN047,0.00,VWS V14.01,2013-12-31 15:38:00,
2013-12-31 10:43:00,37.6,14.9,30.27,South,180,3.1,7.6,39,0.00,,BKN047,0.00,VWS V14.01,2013-12-31 15:43:00,
2013-12-31 10:48:00,39.4,15.9,30.27,West,270,2.2,5.8,38,0.00,,BKN047,0.00,VWS V14.01,2013-12-31 15:48:00,
2013-12-31 10:53:00,40.3,14.8,30.27,WNW,292,4.3,7.4,35,0.00,,BKN047,0.00,VWS V14.01,2013-12-31 15:53:00,
2013-12-31 10:58:00,40.1,13.3,30.27,South,180,3.8,9.2,33,0.00,,BKN047,0.00,VWS V14.01,2013-12-31 15:58:00,
2013-12-31 11:03:00,38.8,12.2,30.27,West,270,4.3,8.7,33,0.00,,FEW020,0.00,VWS V14.01,2013-12-31 16:03:00,
2013-12-31 11:08:00,39.4,12.7,30.27,WNW,292,6.3,8.1,33,0.00,,FEW020,0.00,VWS V14.01,2013-12-31 16:08:00,
2013-12-31 11:13:00,38.3,11.0,30.30,NNE,22,13.0,13.0,32,0.00,,FEW020,0.00,VWS V14.01,2013-12-31 16:13:00,
2013-12-31 11:18:00,37.9,10.7,30.30,SW,225,6.0,11.0,32,0.00,,FEW020,0.00,VWS V14.01,2013-12-31 16:18:00,
2013-12-31 11:23:00,34.7,8.6,30.30,SSW,202,9.6,26.2,33,0.00,,FEW020,0.00,VWS V14.01,2013-12-31 16:23:00,
2013-12-31 11:28:00,35.6,8.7,30.30,South,180,4.0,10.7,32,0.00,,FEW020,0.00,VWS V14.01,2013-12-31 16:28:00,
2013-12-31 11:33:00,37.4,10.2,30.30,ESE,112,4.3,4.9,32,0.00,,FEW020,0.00,VWS V14.01,2013-12-31 16:33:00,
2013-12-31 11:38:00,35.2,9.0,30.30,South,180,5.6,13.0,33,0.00,,FEW020,0.00,VWS V14.01,2013-12-31 16:38:00,
2013-12-31 11:43:00,35.4,10.5,30.33,NE,45,4.3,9.8,35,0.00,,FEW020,0.00,VWS V14.01,2013-12-31 16:43:00,
2013-12-31 11:48:00,35.6,10.0,30.33,SW,225,2.0,11.0,34,0.00,,FEW020,0.00,VWS V14.01,2013-12-31 16:48:00,
2013-12-31 11:53:00,34.9,10.6,30.33,SSW,202,8.1,9.6,36,0.00,,FEW020,0.00,VWS V14.01,2013-12-31 16:53:00,
2013-12-31 11:58:00,35.1,11.4,30.33,South,180,5.8,12.5,37,0.00,,FEW020,0.00,VWS V14.01,2013-12-31 16:58:00,
2013-12-31 12:03:00,35.6,11.3,30.33,ESE,112,3.1,9.4,36,0.00,,SCT035,0.00,VWS V14.01,2013-12-31 17:03:00,
2013-12-31 12:08:00,34.5,10.3,30.33,WNW,292,5.8,14.5,36,0.00,,SCT035,0.00,VWS V14.01,2013-12-31 17:08:00,
2013-12-31 12:13:00,35.2,11.6,30.33,NW,315,2.2,6.0,37,0.00,,SCT035,0.00,VWS V14.01,2013-12-31 17:13:00,
2013-12-31 12:18:00,37.2,13.4,30.33,WSW,248,6.3,6.9,37,0.00,,SCT035,0.00,VWS V14.01,2013-12-31 17:18:00,
2013-12-31 12:23:00,36.3,11.9,30.33,NE,45,5.6,11.9,36,0.00,,SCT035,0.00,VWS V14.01,2013-12-31 17:23:00,
2013-12-31 12:28:00,36.9,11.8,30.33,South,180,7.4,9.4,35,0.00,,SCT035,0.00,VWS V14.01,2013-12-31 17:28:00,
2013-12-31 12:33:00,38.1,12.9,30.33,West,270,3.8,10.1,35,0.00,,SCT035,0.00,VWS V14.01,2013-12-31 17:33:00,
2013-12-31 12:38:00,37.2,11.4,30.33,SSW,202,12.5,16.6,34,0.00,,SCT035,0.00,VWS V14.01,2013-12-31 17:38:00,
2013-12-31 12:43:00,37.4,12.3,30.30,West,270,3.4,7.4,35,0.00,,SCT035,0.00,VWS V14.01,2013-12-31 17:43:00,
2013-12-31 12:48:00,39.7,14.3,30.30,South,180,3.1,4.7,35,0.00,,SCT035,0.00,VWS V14.01,2013-12-31 17:48:00,
2013-12-31 12:53:00,40.1,14.0,30.30,SSW,202,3.4,10.1,34,0.00,,SCT035,0.00,VWS V14.01,2013-12-31 17:53:00,
2013-12-31 12:58:00,39.6,12.9,30.27,South,180,5.4,12.5,33,0.00,,SCT035,0.00,VWS V14.01,2013-12-31 17:58:00,
2013-12-31 13:03:00,39.6,12.1,30.27,SW,225,4.7,8.7,32,0.00,,BKN035,0.00,VWS V14.01,2013-12-31 18:03:00,
2013-12-31 13:08:00,39.4,12.7,30.27,NW,315,9.6,9.6,33,0.00,,BKN035,0.00,VWS V14.01,2013-12-31 18:08:00,
2013-12-31 13:13:00,40.5,13.6,30.27,SW,225,7.8,7.8,33,0.00,,BKN035,0.00,VWS V14.01,2013-12-31 18:13:00,
2013-12-31 13:18:00,39.0,12.4,30.27,SSW,202,3.4,8.1,33,0.00,,BKN035,0.00,VWS V14.01,2013-12-31 18:18:00,
2013-12-31 13:23:00,41.0,14.1,30.27,WSW,248,3.6,4.3,33,0.00,,BKN035,0.00,VWS V14.01,2013-12-31 18:23:00,
2013-12-31 13:28:00,42.3,14.5,30.27,SSE,158,12.3,12.3,32,0.00,,BKN035,0.00,VWS V14.01,2013-12-31 18:28:00,
2013-12-31 13:33:00,41.0,13.4,30.27,NW,315,4.7,9.4,32,0.00,,BKN035,0.00,VWS V14.01,2013-12-31 18:33:00,
2013-12-31 13:38:00,41.4,13.0,30.27,North,0,3.1,8.1,31,0.00,,BKN035,0.00,VWS V14.01,2013-12-31 18:38:00,
2013-12-31 13:43:00,40.8,13.3,30.27,SSW,202,7.4,7.4,32,0.00,,BKN035,0.00,VWS V14.01,2013-12-31 18:43:00,
2013-12-31 13:48:00,40.1,11.9,30.27,NNW,338,6.3,8.7,31,0.00,,BKN035,0.00,VWS V14.01,2013-12-31 18:48:00,
2013-12-31 13:53:00,40.6,12.4,30.27,West,270,3.4,7.6,31,0.00,,BKN035,0.00,VWS V14.01,2013-12-31 18:53:00,
2013-12-31 13:58:00,41.9,13.5,30.27,NNW,338,7.2,7.2,31,0.00,,BKN035,0.00,VWS V14.01,2013-12-31 18:58:00,
2013-12-31 14:03:00,39.9,11.8,30.27,South,180,4.0,16.1,31,0.00,,CLR,0.00,VWS V14.01,2013-12-31 19:03:00,
2013-12-31 14:08:00,39.7,11.6,30.27,SE,135,5.6,10.1,31,0.00,,CLR,0.00,VWS V14.01,2013-12-31 19:08:00,
2013-12-31 14:12:00,41.0,12.7,30.27,West,270,0.9,5.4,31,0.00,,CLR,0.00,VWS V14.01,2013-12-31 19:12:00,
2013-12-31 14:17:00,41.0,12.7,30.27,East,90,0.9,8.1,31,0.00,,CLR,0.00,VWS V14.01,2013-12-31 19:17:00,
2013-12-31 14:22:00,42.4,14.0,30.27,SSE,158,3.4,5.8,31,0.00,,CLR,0.00,VWS V14.01,2013-12-31 19:22:00,
2013-12-31 14:27:00,40.8,11.8,30.27,SW,225,4.0,12.5,30,0.00,,CLR,0.00,VWS V14.01,2013-12-31 19:27:00,
2013-12-31 14:32:00,41.4,12.3,30.27,SSW,202,4.3,5.6,30,0.00,,CLR,0.00,VWS V14.01,2013-12-31 19:32:00,
2013-12-31 14:37:00,40.8,11.8,30.27,SW,225,3.6,8.7,30,0.00,,CLR,0.00,VWS V14.01,2013-12-31 19:37:00,
2013-12-31 14:42:00,40.6,11.6,30.27,South,180,12.1,12.1,30,0.00,,CLR,0.00,VWS V14.01,2013-12-31 19:42:00,
2013-12-31 14:47:00,41.7,12.6,30.27,SSE,158,6.5,6.5,30,0.00,,CLR,0.00,VWS V14.01,2013-12-31 19:47:00,
2013-12-31 14:52:00,41.9,12.7,30.27,SSW,202,3.6,4.9,30,0.00,,CLR,0.00,VWS V14.01,2013-12-31 19:52:00,
2013-12-31 14:57:00,42.8,12.8,30.27,SW,225,6.9,6.9,29,0.00,,CLR,0.00,VWS V14.01,2013-12-31 19:57:00,
2013-12-31 15:02:00,41.9,12.7,30.27,SW,225,2.9,6.0,30,0.00,,FEW031,0.00,VWS V14.01,2013-12-31 20:02:00,
2013-12-31 15:07:00,42.1,12.9,30.27,South,180,5.6,10.5,30,0.00,,FEW031,0.00,VWS V14.01,2013-12-31 20:07:00,
2013-12-31 15:12:00,39.7,10.9,30.27,West,270,3.1,10.1,30,0.00,,FEW031,0.00,VWS V14.01,2013-12-31 20:12:00,
2013-12-31 15:17:00,40.3,11.3,30.27,SSW,202,3.6,6.3,30,0.00,,FEW031,0.00,VWS V14.01,2013-12-31 20:17:00,
2013-12-31 15:22:00,41.0,12.0,30.27,South,180,5.6,7.8,30,0.00,,FEW031,0.00,VWS V14.01,2013-12-31 20:22:00,
2013-12-31 15:27:00,40.5,12.2,30.24,West,270,3.4,6.3,31,0.00,,FEW031,0.00,VWS V14.01,2013-12-31 20:27:00,
2013-12-31 15:32:00,39.9,11.8,30.24,South,180,2.5,4.3,31,0.00,,FEW031,0.00,VWS V14.01,2013-12-31 20:32:00,
2013-12-31 15:37:00,39.4,11.3,30.24,South,180,4.3,4.9,31,0.00,,FEW031,0.00,VWS V14.01,2013-12-31 20:37:00,
2013-12-31 15:42:00,38.8,10.8,30.27,SW,225,1.3,4.3,31,0.00,,FEW031,0.00,VWS V14.01,2013-12-31 20:42:00,
2013-12-31 15:47:00,39.2,11.1,30.27,West,270,1.6,3.1,31,0.00,,FEW031,0.00,VWS V14.01,2013-12-31 20:47:00,
2013-12-31 15:52:00,39.0,11.0,30.27,SW,225,3.1,4.3,31,0.00,,FEW031,0.00,VWS V14.01,2013-12-31 20:52:00,
2013-12-31 15:57:00,38.8,10.8,30.27,WNW,292,1.6,4.5,31,0.00,,FEW031,0.00,VWS V14.01,2013-12-31 20:57:00,
2013-12-31 16:02:00,38.3,11.0,30.27,SW,225,2.5,4.7,32,0.00,,FEW031,0.00,VWS V14.01,2013-12-31 21:02:00,
2013-12-31 16:07:00,37.9,10.7,30.27,South,180,2.0,2.9,32,0.00,,FEW031,0.00,VWS V14.01,2013-12-31 21:07:00,
2013-12-31 16:12:00,37.9,10.7,30.27,WNW,292,1.1,4.0,32,0.00,,FEW031,0.00,VWS V14.01,2013-12-31 21:12:00,
2013-12-31 16:17:00,37.2,10.1,30.27,NNW,338,3.8,4.9,32,0.00,,FEW031,0.00,VWS V14.01,2013-12-31 21:17:00,
2013-12-31 16:22:00,37.0,10.6,30.27,West,270,3.8,3.8,33,0.00,,FEW031,0.00,VWS V14.01,2013-12-31 21:22:00,
2013-12-31 16:27:00,37.0,10.6,30.30,West,270,3.1,3.4,33,0.00,,FEW031,0.00,VWS V14.01,2013-12-31 21:27:00,
2013-12-31 16:32:00,36.1,9.8,30.30,West,270,2.2,3.8,33,0.00,,FEW031,0.00,VWS V14.01,2013-12-31 21:32:00,
2013-12-31 16:37:00,35.1,9.5,30.30,NNE,22,3.1,3.8,34,0.00,,FEW031,0.00,VWS V14.01,2013-12-31 21:37:00,
2013-12-31 16:42:00,34.3,8.9,30.33,WSW,248,4.0,4.0,34,0.00,,FEW031,0.00,VWS V14.01,2013-12-31 21:42:00,
2013-12-31 16:47:00,33.8,9.1,30.33,NW,315,2.2,2.9,35,0.00,,FEW031,0.00,VWS V14.01,2013-12-31 21:47:00,
2013-12-31 16:52:00,33.3,9.8,30.33,NNW,338,2.5,4.3,37,0.00,,FEW031,0.00,VWS V14.01,2013-12-31 21:52:00,
2013-12-31 16:57:00,32.9,10.1,30.33,SW,225,0.0,1.3,38,0.00,,FEW031,0.00,VWS V14.01,2013-12-31 21:57:00,
2013-12-31 17:02:00,32.2,10.6,30.33,SW,225,0.0,0.0,40,0.00,,CLR,0.00,VWS V14.01,2013-12-31 22:02:00,
2013-12-31 17:07:00,31.5,10.5,30.33,SW,225,0.0,1.6,41,0.00,,CLR,0.00,VWS V14.01,2013-12-31 22:07:00,
2013-12-31 17:12:00,30.9,10.0,30.33,SW,225,0.0,1.1,41,0.00,,CLR,0.00,VWS V14.01,2013-12-31 22:12:00,
2013-12-31 17:17:00,30.2,9.9,30.33,SW,225,0.0,0.0,42,0.00,,CLR,0.00,VWS V14.01,2013-12-31 22:17:00,
2013-12-31 17:22:00,29.5,9.8,30.33,SW,225,0.0,1.3,43,0.00,,CLR,0.00,VWS V14.01,2013-12-31 22:22:00,
2013-12-31 17:27:00,28.8,11.6,30.33,East,90,2.9,2.9,48,0.00,,CLR,0.00,VWS V14.01,2013-12-31 22:27:00,
2013-12-31 17:32:00,28.8,10.1,30.33,NE,45,0.0,1.3,45,0.00,,CLR,0.00,VWS V14.01,2013-12-31 22:32:00,
2013-12-31 17:37:00,28.4,10.8,30.33,North,0,0.0,2.9,47,0.00,,CLR,0.00,VWS V14.01,2013-12-31 22:37:00,
2013-12-31 17:42:00,28.2,10.6,30.33,SSW,202,0.0,1.6,47,0.00,,CLR,0.00,VWS V14.01,2013-12-31 22:42:00,
2013-12-31 17:47:00,27.9,10.3,30.33,NNW,338,0.0,1.6,47,0.00,,CLR,0.00,VWS V14.01,2013-12-31 22:47:00,
2013-12-31 17:52:00,27.1,9.6,30.33,NNW,338,0.0,0.0,47,0.00,,CLR,0.00,VWS V14.01,2013-12-31 22:52:00,
2013-12-31 17:57:00,26.6,11.4,30.33,East,90,0.9,2.0,52,0.00,,CLR,0.00,VWS V14.01,2013-12-31 22:57:00,
2013-12-31 18:02:00,26.4,10.3,30.33,South,180,0.0,2.2,50,0.00,,CLR,0.00,VWS V14.01,2013-12-31 23:02:00,
2013-12-31 18:07:00,26.1,10.0,30.33,South,180,1.1,1.1,50,0.00,,CLR,0.00,VWS V14.01,2013-12-31 23:07:00,
2013-12-31 18:12:00,25.5,9.5,30.33,South,180,0.0,0.0,50,0.00,,CLR,0.00,VWS V14.01,2013-12-31 23:12:00,
2013-12-31 18:17:00,25.2,9.6,30.33,South,180,0.0,0.0,51,0.00,,CLR,0.00,VWS V14.01,2013-12-31 23:17:00,
2013-12-31 18:22:00,25.3,11.9,30.33,East,90,0.0,2.0,56,0.00,,CLR,0.00,VWS V14.01,2013-12-31 23:22:00,
2013-12-31 18:27:00,25.0,11.1,30.33,East,90,0.0,0.0,55,0.00,,CLR,0.00,VWS V14.01,2013-12-31 23:27:00,
2013-12-31 18:32:00,25.0,11.1,30.33,East,90,1.6,2.0,55,0.00,,CLR,0.00,VWS V14.01,2013-12-31 23:32:00,
2013-12-31 18:37:00,25.5,12.0,30.33,ESE,112,0.9,2.2,56,0.00,,CLR,0.00,VWS V14.01,2013-12-31 23:37:00,
2013-12-31 18:42:00,24.6,11.2,30.33,NE,45,0.0,1.6,56,0.00,,CLR,0.00,VWS V14.01,2013-12-31 23:42:00,
2013-12-31 18:47:00,24.4,11.8,30.33,SSE,158,0.0,2.7,58,0.00,,CLR,0.00,VWS V14.01,2013-12-31 23:47:00,
2013-12-31 18:52:00,24.3,12.0,30.33,NE,45,0.0,1.3,59,0.00,,CLR,0.00,VWS V14.01,2013-12-31 23:52:00,
2013-12-31 18:57:00,23.9,10.9,30.33,West,270,0.0,0.0,57,0.00,,CLR,0.00,VWS V14.01,2013-12-31 23:57:00,
2013-12-31 19:02:00,24.1,13.0,30.33,East,90,2.9,2.9,62,0.00,,CLR,0.00,VWS V14.01,2014-01-01 00:02:00,
2013-12-31 19:07:00,24.6,14.6,30.33,NE,45,1.1,3.1,65,0.00,,CLR,0.00,VWS V14.01,2014-01-01 00:07:00,
2013-12-31 19:12:00,23.7,12.2,30.33,North,0,0.0,0.0,61,0.00,,CLR,0.00,VWS V14.01,2014-01-01 00:12:00,
2013-12-31 19:17:00,23.5,12.4,30.33,NNE,22,0.0,0.0,62,0.00,,CLR,0.00,VWS V14.01,2014-01-01 00:17:00,
2013-12-31 19:22:00,23.2,12.1,30.33,WNW,292,0.0,0.0,62,0.00,,CLR,0.00,VWS V14.01,2014-01-01 00:22:00,
2013-12-31 19:27:00,23.4,13.4,30.33,NW,315,0.9,2.0,65,0.00,,CLR,0.00,VWS V14.01,2014-01-01 00:27:00,
2013-12-31 19:32:00,23.4,13.7,30.33,SE,135,2.2,2.5,66,0.00,,CLR,0.00,VWS V14.01,2014-01-01 00:32:00,
2013-12-31 19:37:00,23.0,13.7,30.33,WSW,248,0.0,1.3,67,0.00,,CLR,0.00,VWS V14.01,2014-01-01 00:37:00,
2013-12-31 19:42:00,23.0,15.0,30.33,East,90,3.1,3.1,71,0.00,,CLR,0.00,VWS V14.01,2014-01-01 00:42:00,
2013-12-31 19:47:00,23.2,15.2,30.33,SSE,158,1.1,1.1,71,0.00,,CLR,0.00,VWS V14.01,2014-01-01 00:47:00,
2013-12-31 19:52:00,23.0,13.4,30.33,East,90,2.5,2.5,66,0.00,,CLR,0.00,VWS V14.01,2014-01-01 00:52:00,
2013-12-31 19:57:00,23.0,15.3,30.33,ENE,68,2.9,2.9,72,0.00,,CLR,0.00,VWS V14.01,2014-01-01 00:57:00,
2013-12-31 20:02:00,23.4,16.3,30.33,SSW,202,1.3,3.1,74,0.00,,CLR,0.00,VWS V14.01,2014-01-01 01:02:00,
2013-12-31 20:07:00,23.4,16.3,30.33,NW,315,0.0,3.1,74,0.00,,CLR,0.00,VWS V14.01,2014-01-01 01:07:00,
2013-12-31 20:12:00,23.5,16.2,30.33,NE,45,1.6,3.6,73,0.00,,CLR,0.00,VWS V14.01,2014-01-01 01:12:00,
2013-12-31 20:17:00,23.5,15.9,30.33,SE,135,1.1,3.1,72,0.00,,CLR,0.00,VWS V14.01,2014-01-01 01:17:00,
2013-12-31 20:22:00,23.7,16.0,30.33,SE,135,1.3,2.9,72,0.00,,CLR,0.00,VWS V14.01,2014-01-01 01:22:00,
2013-12-31 20:27:00,23.2,15.5,30.30,NE,45,2.5,2.5,72,0.00,,CLR,0.00,VWS V14.01,2014-01-01 01:27:00,
2013-12-31 20:32:00,23.2,14.9,30.30,South,180,2.0,2.5,70,0.00,,CLR,0.00,VWS V14.01,2014-01-01 01:32:00,
2013-12-31 20:37:00,23.0,15.0,30.30,South,180,0.0,0.9,71,0.00,,CLR,0.00,VWS V14.01,2014-01-01 01:37:00,
2013-12-31 20:42:00,22.8,14.8,30.33,NE,45,0.0,1.6,71,0.00,,CLR,0.00,VWS V14.01,2014-01-01 01:42:00,
2013-12-31 20:47:00,22.5,14.2,30.33,ENE,68,0.0,1.1,70,0.00,,CLR,0.00,VWS V14.01,2014-01-01 01:47:00,
2013-12-31 20:52:00,22.5,15.1,30.33,East,90,1.3,2.0,73,0.00,,CLR,0.00,VWS V14.01,2014-01-01 01:52:00,
2013-12-31 20:57:00,22.3,15.0,30.33,ESE,112,1.3,2.5,73,0.00,,CLR,0.00,VWS V14.01,2014-01-01 01:57:00,
2013-12-31 21:02:00,22.5,14.8,30.33,East,90,2.7,2.9,72,0.00,,CLR,0.00,VWS V14.01,2014-01-01 02:02:00,
2013-12-31 21:07:00,22.5,15.1,30.33,South,180,0.0,1.1,73,0.00,,CLR,0.00,VWS V14.01,2014-01-01 02:07:00,
2013-12-31 21:12:00,22.6,16.2,30.33,East,90,3.4,4.3,76,0.00,,CLR,0.00,VWS V14.01,2014-01-01 02:12:00,
2013-12-31 21:17:00,22.6,16.2,30.33,SE,135,2.9,3.4,76,0.00,,CLR,0.00,VWS V14.01,2014-01-01 02:17:00,
2013-12-31 21:22:00,22.6,16.2,30.33,East,90,2.9,3.1,76,0.00,,CLR,0.00,VWS V14.01,2014-01-01 02:22:00,
2013-12-31 21:27:00,22.8,16.4,30.33,ESE,112,2.0,2.7,76,0.00,,CLR,0.00,VWS V14.01,2014-01-01 02:27:00,
2013-12-31 21:32:00,23.0,16.6,30.33,East,90,2.9,3.1,76,0.00,,CLR,0.00,VWS V14.01,2014-01-01 02:32:00,
2013-12-31 21:37:00,23.0,16.6,30.33,ESE,112,2.7,3.4,76,0.00,,CLR,0.00,VWS V14.01,2014-01-01 02:37:00,
2013-12-31 21:42:00,22.8,16.1,30.33,SE,135,0.9,2.5,75,0.00,,CLR,0.00,VWS V14.01,2014-01-01 02:42:00,
2013-12-31 21:47:00,22.3,15.6,30.33,East,90,0.0,1.6,75,0.00,,CLR,0.00,VWS V14.01,2014-01-01 02:47:00,
2013-12-31 21:52:00,22.1,15.1,30.33,SSE,158,0.0,1.6,74,0.00,,CLR,0.00,VWS V14.01,2014-01-01 02:52:00,
2013-12-31 21:57:00,22.5,15.8,30.33,South,180,3.1,3.4,75,0.00,,CLR,0.00,VWS V14.01,2014-01-01 02:57:00,
2013-12-31 22:02:00,21.9,15.2,30.33,SSW,202,0.0,2.9,75,0.00,,CLR,0.00,VWS V14.01,2014-01-01 03:02:00,
2013-12-31 22:07:00,21.7,15.6,30.33,ESE,112,1.3,2.2,77,0.00,,CLR,0.00,VWS V14.01,2014-01-01 03:07:00,
2013-12-31 22:12:00,21.7,15.6,30.33,East,90,1.3,3.4,77,0.00,,CLR,0.00,VWS V14.01,2014-01-01 03:12:00,
2013-12-31 22:17:00,21.9,16.1,30.33,ESE,112,0.0,1.3,78,0.00,,CLR,0.00,VWS V14.01,2014-01-01 03:17:00,
2013-12-31 22:22:00,21.7,15.9,30.33,ESE,112,2.5,2.5,78,0.00,,CLR,0.00,VWS V14.01,2014-01-01 03:22:00,
2013-12-31 22:27:00,21.7,15.6,30.33,ESE,112,2.9,2.9,77,0.00,,CLR,0.00,VWS V14.01,2014-01-01 03:27:00,
2013-12-31 22:32:00,21.6,15.8,30.33,West,270,1.3,1.3,78,0.00,,CLR,0.00,VWS V14.01,2014-01-01 03:32:00,
2013-12-31 22:37:00,21.6,15.8,30.33,SSE,158,0.9,3.4,78,0.00,,CLR,0.00,VWS V14.01,2014-01-01 03:37:00,
2013-12-31 22:42:00,21.2,15.1,30.33,ESE,112,2.5,2.5,77,0.00,,CLR,0.00,VWS V14.01,2014-01-01 03:42:00,
2013-12-31 22:47:00,21.6,16.4,30.33,East,90,2.9,2.9,80,0.00,,CLR,0.00,VWS V14.01,2014-01-01 03:47:00,
2013-12-31 22:52:00,21.2,15.7,30.33,ESE,112,2.2,2.5,79,0.00,,CLR,0.00,VWS V14.01,2014-01-01 03:52:00,
2013-12-31 22:57:00,21.6,16.4,30.33,ESE,112,3.4,3.6,80,0.00,,CLR,0.00,VWS V14.01,2014-01-01 03:57:00,
2013-12-31 23:02:00,21.6,16.4,30.33,ESE,112,2.5,3.1,80,0.00,,CLR,0.00,VWS V14.01,2014-01-01 04:02:00,
2013-12-31 23:07:00,21.2,16.0,30.33,SE,135,1.6,2.5,80,0.00,,CLR,0.00,VWS V14.01,2014-01-01 04:07:00,
2013-12-31 23:12:00,21.2,16.0,30.33,ESE,112,3.6,3.6,80,0.00,,CLR,0.00,VWS V14.01,2014-01-01 04:12:00,
2013-12-31 23:17:00,21.9,17.0,30.33,East,90,0.0,3.8,81,0.00,,CLR,0.00,VWS V14.01,2014-01-01 04:17:00,
2013-12-31 23:22:00,21.2,16.0,30.33,NW,315,0.0,0.0,80,0.00,,CLR,0.00,VWS V14.01,2014-01-01 04:22:00,
2013-12-31 23:27:00,22.1,16.9,30.33,ESE,112,3.6,4.3,80,0.00,,CLR,0.00,VWS V14.01,2014-01-01 04:27:00,
2013-12-31 23:32:00,21.7,16.5,30.33,SE,135,1.6,2.2,80,0.00,,CLR,0.00,VWS V14.01,2014-01-01 04:32:00,
2013-12-31 23:37:00,21.2,16.0,30.33,NW,315,1.6,1.6,80,0.00,,CLR,0.00,VWS V14.01,2014-01-01 04:37:00,
2013-12-31 23:42:00,21.0,15.8,30.33,West,270,0.0,0.0,80,0.00,,CLR,0.00,VWS V14.01,2014-01-01 04:42:00,
2013-12-31 23:47:00,21.0,15.8,30.33,WNW,292,0.0,1.6,80,0.00,,CLR,0.00,VWS V14.01,2014-01-01 04:47:00,
2013-12-31 23:52:00,21.2,16.0,30.33,East,90,2.9,2.9,80,0.00,,CLR,0.00,VWS V14.01,2014-01-01 04:52:00,
2013-12-31 23:57:00,22.1,17.2,30.33,East,90,3.4,3.4,81,0.00,,CLR,0.00,VWS V14.01,2014-01-01 04:57:00,